SCP
0 0 0 0 0 0 0 -0 -0 -0 0 0 -0 -0 -0 -0 -0 -0 -0 -0 -0 -0 -0 -0 -0 -0 -0 -0 -0 -0 -0 -0 -0 -0 -0 -0 -0 -0 -0 -0 -0 -0 -0
-0 -0 -0 -0 -0 -0 -0 -0 -0 -0 -0 -0 -0 -0 0 0 0 -0 0 -0 -0 -0 -0 -0 -0 -0 -0 -0 -0 -0 -0 -0 0 -0 -0 -0 -0 -0 -0 -0 -0 -0 -0
-0 -0 -0 -0 -0 -0 -0 -0 -0 -0 -0 -0 0 -0 -0 -0 0 -0 -0 -0 -0 -0 -0 -0 -0 -0 -0 -0 -0 -0 -0 -0 -0 -0 -0 0 -0 -0 -0 -0 -0 -0 -0
-0 -0 -0 -0 -0 -0 -0 -0 -0 -0 -0 -0 -0 -0 -0 -0 -0 -0 -0 -0 -0 -0 -0 -0 -0 -0 -0 -0 -0 -0 -0 -0 -0 -0 0 -0 -0 -0 -0 -0 -0 -0 -0
-0 -0 -0 -0 -0 -0 -0 -0 -0 -0 -0 -0 -0 -0 -0 -0 -0 -0 -0 -0 -0 -0 -0 -0 -0 -0 -0 -0 -0 -0 -0 -0 -0 -0 -0 -0 -0 -0 -0 -0 -0 -0 -0
-0 -0 -0 -0 -0 -0 -0 -0 -0 -0 -0 -0 -0 -0 -0 -0 -0 -0 -0 -0 -0 -0 -0 -0 -0 -0 -0 -0 -0 -0 -0 -0 -0 -0 0 -0 -0 -0 -0 -0 -0 -0 -0
-0 -0 -0 -0 -0 -0 -0 -0 -0 -0 -0 -0 -0 -0 -0 -0 -0 -0 -0 -0 -0 -0 -0 -0 -0 -0 -0 -0 -0 -0 -0 -0 -0 -0 -0 -0 -0 -0 -0 -0 -0 -0 -0
-0 -0 -0 -0 -0 -0 -0 -0 -0 -0 -0 -0 -0 -0 -0 -0 -0 -0 -0 -0 -0 -0 -0 -0 -0 -0 -0 -0 -0 -0 -0 -0 0 0 0 0 -0 -0 -0 -0 -0 -0 -0
-0 -0 -0 -0 -0 -0 -0 -0 -0 -0 -0 -0 -0 -0 -0 -0 -0 -0 -0 -0 -0 -0 -0 -0 -0 -0 -0 -0 -0 -0 -0 -0 0 0 -0 0 -0 -0 -0 -0 -0 -0 -0
-0 -0 -0 -0 -0 -0 -0 -0 -0 -0 -0 -0 -0 -0 -0 -0 -0 -0 -0 -0 -0 -0 -0 -0 -0 -0 -0 -0 -0 -0 -0 -0 0 0 0 0 -0 -0 -0 -0 -0 -0 -0
-0 -0 -0 -0 0 0 0 0 -0 -0 -0 -0 -0 -0 -0 0 0 0 0 -0 -0 -0 -0 -0 -0 -0 -0 0 -0 -0 -0 0 0 0 0 -0 -0 -0 -0 -0 -0 -0 -0
-0 -0 0 -0 -0 0 0 0 0 0 0 0 0 0 0 0 0 0 0 0 -0 -0 -0 -0 -0 0 0 0 0 0 0 0 0 0 0 0 -0 -0 -0 -0 0 -0 -0
-0 0 0 0 0 0 0 0 0 0 0 0 0 0 0 0 0 0 0 0 0 0 0 0 0 0 0 0 0 0 0 0 0 0 0 0 0 0 0 0 0 0 0
0 0 0 0 0 0 0 0 0 0 0 0 0 0 0 0 0 0 0 0 0 0 0 0 0 0 0 0 0 0 0 0 0 0 0 0 0 0 0 0 0 0 0
0 0 0 0 0 0 0 0 0 0 0 0 0 0 0 0 0 0 0 0 0 0 0 0 0 0 0 0 0 0 0 0 0 0 0 0 0 0 0 0 0 0 0
0 0 0 0 0 0 1 0 0 0 0 0 0 0 0 0 0 0 0 0 0 0 0 0 0 0 0 0 0 0 0 0 0 0 0 0 0 0 0 0 0 0 0
0 0 0 0 0 0 0 0 0 0 0 0 0 0 0 0 0 0 0 0 0 0 0 0 0 0 0 0 0 0 0 0 0 0 0 0 0 0 0 0 0 0 0
0 0 0 0 0 0 0 0 0 0 0 0 0 0 0 0 0 0 0 0 0 0 0 0 0 0 0 0 0 0 0 0 0 0 0 0 0 0 0 0 0 0 0
0 0 0 0 0 0 0 0 0 0 0 0 0 0 0 0 0 0 0 0 0 0 0 0 0 0 0 0 0 0 0 0 0 0 0 0 0 0 0 0 0 0 0
0 0 0 0 0 0 0 0 0 0 0 0 0 0 0 0 0 0 0 0 0 0 0 0 0 0 0 0 0 0 0 0 0 0 0 0 0 0 0 0 0 0 0
0 0 0 0 0 0 0 0 0 0 0 0 0 0 0 0 0 0 0 0 0 0 0 0 0 0 0 0 0 0 0 0 0 0 0 0 0 0 0 0 0 0 0
0 0 0 0 0 0 0 0 0 0 0 0 0 0 0 0 0 0 0 0 0 0 0 0 0 0 0 0 0 0 0 0 0 0 0 0 0 0 0 0 0 0 0
0 0 0 0 0 0 0 0 0 0 0 0 0 0 0 0 0 0 0 0 0 0 0 0 0 0 0 0 0 0 0 0 0 0 0 0 0 0 0 0 0 0 0
0 0 0 0 0 0 0 0 0 0 0 0 0 0 0 0 0 0 0 0 0 0 0 0 0 0 0 0 0 0 0 0 0 0 0 0 0 0 0 0 0 0 0
0 0 0 0 0 0 0 0 0 0 0 0 0 0 0 0 0 0 0 0 0 0 0 0 0 0 0 0 0 0 0 0 0 0 0 0 0 0 0 0 0 0 0
0 0 0 0 0 0 0 0 0 0 0 0 0 0 0 0 0 0 0 0 0 0 0 0 0 0 0 0 0 0 0 0 0 0 0 0 0 0 0 0 0 0 0
Wind_Speed_500mb
36 39 30 28 23 18 13 15 18 20 22 22 20 19 20 21 22 28 29 30 29 23 25 35 32 31 32 33 34 35 35 36 32 26 25 30 35 37 41 45 49 53 55
40 37 28 25 25 22 15 15 19 20 22 24 23 22 21 22 25 34 31 36 29 20 24 28 31 34 34 35 38 42 41 43 42 33 31 30 31 29 28 30 34 39 43
36 37 29 25 25 22 15 15 18 18 21 23 23 24 24 23 23 31 30 36 28 21 18 24 31 33 33 37 43 47 52 46 38 37 37 38 36 33 30 30 28 25 27
35 34 33 30 27 23 16 15 16 17 19 20 22 23 23 22 22 26 34 34 21 12 16 26 30 32 35 40 43 44 45 35 32 32 37 40 41 41 39 35 34 30 26
35 34 34 30 28 23 18 15 14 14 15 18 19 21 21 22 22 21 30 30 19 13 18 25 28 31 33 39 44 50 45 32 30 34 39 45 51 50 43 45 40 36 34
29 30 32 30 29 24 19 16 14 13 13 14 16 18 19 18 19 19 23 25 17 12 21 24 26 29 32 38 43 43 33 26 36 45 55 48 51 49 50 51 50 49 49
33 30 29 31 29 25 21 16 14 13 13 13 14 16 17 17 17 16 17 16 13 18 20 23 24 27 30 34 37 38 29 36 45 49 52 53 49 44 44 41 40 43 44
37 32 32 32 29 25 23 18 14 12 11 11 11 13 14 15 15 16 15 16 17 20 21 23 25 27 30 32 33 33 26 35 40 40 45 44 39 37 32 34 37 36 37
32 33 32 36 33 29 26 23 19 15 12 11 9 11 13 14 15 16 16 16 18 20 21 23 25 27 30 32 32 31 25 26 26 26 25 33 32 32 31 34 33 35 32
30 33 34 38 36 34 31 26 23 20 16 12 10 10 12 15 17 17 17 17 18 19 20 21 23 25 29 32 30 27 22 27 34 39 39 36 35 35 36 38 38 41 33
36 36 34 36 38 36 33 30 27 24 21 17 15 12 11 12 16 18 19 19 18 18 19 21 23 25 28 26 23 21 22 34 39 42 35 37 43 36 32 32 31 43 38
48 41 38 38 34 34 33 34 32 30 27 22 21 17 14 9 10 14 17 17 17 17 17 20 24 26 26 23 18 16 24 32 43 47 43 37 36 27 23 22 41 41 42
46 46 45 43 42 43 39 37 37 34 32 31 28 26 16 7 7 9 8 8 8 12 12 14 15 16 18 17 18 13 22 29 36 41 38 27 24 19 17 34 40 37 38
49 48 49 49 48 46 43 45 42 39 38 37 37 37 27 21 14 14 12 10 6 7 7 3 4 9 12 16 19 15 24 31 38 40 37 26 26 29 34 31 35 35 35
52 56 55 54 50 49 50 49 47 46 44 41 41 43 37 28 22 24 24 16 15 14 12 9 11 10 12 14 17 16 20 32 40 42 43 38 31 33 28 31 32 33 32
55 56 60 62 58 57 60 56 49 51 45 46 47 50 45 39 33 30 27 25 24 20 20 20 20 16 14 16 19 20 23 33 35 35 35 36 36 31 31 29 28 27 29
63 62 66 69 68 71 68 61 54 50 47 48 57 52 50 50 45 38 35 32 33 31 28 27 29 26 20 18 20 23 26 32 36 37 35 28 18 18 26 26 25 24 26
65 70 71 75 73 67 73 71 66 63 58 56 54 55 55 57 54 52 46 41 40 42 41 38 34 31 26 18 22 26 30 32 35 38 37 31 23 20 18 23 23 21 23
66 74 78 76 76 72 71 73 70 66 67 67 65 57 52 59 60 61 53 51 49 50 49 45 40 36 34 26 25 29 33 35 36 34 32 30 27 21 15 11 10 10 18
71 73 77 75 78 74 75 73 73 75 68 71 72 68 65 60 61 59 62 62 61 61 56 51 50 45 41 35 35 35 38 37 35 35 34 32 29 26 21 15 13 11 11
73 71 74 78 81 78 79 82 81 81 78 80 81 77 66 69 65 68 64 66 71 72 63 52 61 57 51 52 45 41 39 39 39 37 38 36 33 28 24 22 19 16 13
66 75 78 82 82 81 80 82 84 81 81 81 81 80 74 79 79 76 75 69 74 79 62 60 66 67 64 62 56 46 34 39 46 43 43 40 35 32 29 25 23 21 19
68 71 80 84 84 84 81 81 82 78 79 85 89 85 81 80 86 89 82 80 72 81 76 80 63 78 70 67 65 47 24 27 49 50 47 44 41 38 35 32 30 27 22
71 63 68 78 84 85 81 83 86 89 91 91 84 75 72 81 89 91 87 85 78 76 81 79 69 89 74 73 79 75 47 35 34 31 53 52 47 46 42 39 34 30 25
52 61 57 63 75 80 81 81 83 86 87 87 80 74 70 71 86 94 93 85 83 82 86 76 85 89 87 87 85 80 71 50 39 35 39 60 59 53 48 43 38 34 29
45 50 56 57 65 73 78 80 82 84 85 82 81 80 74 68 75 90 95 97 89 90 92 90 83 97 84 99 92 91 84 75 71 52 36 38 51 53 54 50 47 39 33
Wind_Direction_500mb
152 157 154 136 138 135 130 107 84 76 82 83 83 89 95 103 107 100 98 90 94 91 83 83 84 89 88 89 89 92 88 81 77 83 90 95 95 90 88 86 83 79 81
152 158 155 144 146 147 141 113 92 82 79 79 87 94 97 98 108 108 100 102 100 96 87 89 89 86 85 89 92 89 85 75 64 74 82 94 95 92 98 96 94 91 87
172 167 164 161 154 150 137 103 89 84 79 78 79 84 95 99 95 105 104 110 100 98 98 89 86 83 85 91 93 91 83 77 74 71 78 81 82 84 83 86 93 90 84
175 169 169 164 161 156 143 122 107 97 90 86 83 83 86 94 99 105 100 106 115 123 107 91 87 85 91 95 97 95 93 97 95 85 77 80 76 76 76 77 76 78 79
180 172 171 169 164 161 155 135 118 103 95 92 86 83 85 90 94 101 111 118 127 125 96 91 85 88 94 97 97 91 81 83 88 77 80 76 78 75 75 73 69 72 73
175 179 170 175 170 169 170 150 136 124 115 102 85 79 78 86 95 111 121 141 141 102 90 89 88 93 99 102 101 96 107 85 81 78 72 72 76 78 80 80 82 77 77
163 192 188 181 175 175 180 168 155 140 128 112 97 85 79 82 94 105 116 123 111 99 96 93 93 98 101 105 109 107 94 94 95 93 90 86 86 81 89 87 87 87 86
175 185 193 186 182 182 187 184 176 157 146 133 111 93 83 87 97 101 107 106 105 101 98 97 101 104 105 108 111 107 105 107 107 106 99 100 97 96 93 91 87 94 91
195 197 197 191 188 189 193 194 191 183 174 162 133 101 92 94 98 102 102 99 100 102 103 105 109 111 113 115 117 117 114 114 123 121 117 111 111 98 98 94 94 91 89
202 203 199 198 195 194 196 197 201 197 195 183 159 129 112 108 104 101 102 102 103 107 110 114 116 118 122 125 126 126 118 106 100 88 78 85 98 98 97 90 85 81 74
202 205 208 209 201 203 204 202 202 204 204 195 184 165 139 127 116 107 100 99 101 107 113 117 120 123 129 129 129 133 126 110 104 99 96 101 107 106 96 88 81 80 78
205 211 205 209 212 208 211 208 203 206 205 208 199 180 161 158 137 124 110 97 97 102 111 121 126 128 132 132 130 128 123 125 118 112 110 114 109 111 100 94 86 79 77
215 202 212 213 210 207 210 211 206 208 209 207 203 201 186 214 198 180 150 109 103 111 113 130 142 148 157 150 146 144 125 135 132 127 132 133 135 132 112 89 82 77 76
207 207 206 213 211 209 212 212 214 210 214 215 208 210 205 200 226 226 226 200 176 169 124 120 176 187 185 173 168 167 143 144 134 132 130 133 120 116 98 88 85 81 77
210 208 213 208 214 212 213 215 217 217 216 222 219 212 213 210 227 231 230 223 226 233 239 242 240 220 210 199 189 187 164 155 144 141 140 138 130 108 98 95 89 83 78
221 218 216 217 208 212 217 220 220 221 222 223 227 220 220 218 235 234 234 228 233 237 248 243 216 217 231 217 205 195 177 169 168 164 163 154 143 117 111 99 95 87 82
217 225 215 225 222 217 215 220 221 224 228 228 230 232 228 227 225 235 235 234 233 224 247 248 226 220 210 224 213 200 187 177 175 174 179 186 187 183 129 114 106 97 88
221 220 224 224 232 223 219 222 221 224 232 237 235 236 232 230 233 233 230 232 229 228 227 230 228 215 210 237 245 211 197 188 185 186 188 196 204 201 191 148 126 107 94
229 225 229 230 230 227 225 223 226 226 225 230 239 237 233 231 230 235 234 234 229 230 231 233 225 222 227 224 239 224 205 197 196 198 200 205 207 208 202 184 172 155 113
235 230 232 231 233 230 225 226 226 228 229 230 233 236 236 236 231 232 233 230 235 232 229 239 227 219 227 226 212 223 209 206 204 205 210 215 213 210 209 203 201 202 181
235 233 229 228 232 231 226 226 227 230 229 230 238 238 232 238 239 244 239 236 232 234 244 240 228 216 212 220 213 200 205 208 212 211 216 217 217 213 214 216 219 221 217
243 233 228 231 233 235 232 233 232 235 236 242 242 246 242 233 238 242 240 238 237 237 246 237 243 208 212 217 212 205 198 211 214 216 220 220 219 218 219 222 226 227 220
245 239 232 233 236 238 236 233 233 233 237 240 243 244 242 237 237 236 241 243 241 238 241 246 249 220 231 221 218 215 188 212 212 216 222 225 224 224 224 227 228 230 227
249 252 246 238 234 237 236 235 234 235 235 243 250 251 248 239 234 237 238 243 242 243 237 240 251 230 229 231 220 220 221 220 189 200 219 226 227 228 226 227 227 228 223
251 251 248 243 237 235 237 237 237 238 240 245 248 249 249 244 233 235 236 238 243 236 248 239 250 232 243 239 239 221 216 217 222 209 208 218 223 227 226 228 229 231 229
243 240 247 244 240 237 238 239 239 241 244 244 247 248 250 247 237 232 235 238 238 243 236 247 244 237 239 237 234 227 227 223 219 216 213 216 224 228 231 230 231 232 233
Wind_Speed_850mb
36 39 30 28 23 18 13 15 18 20 22 22 20 19 20 21 22 28 29 30 29 23 25 35 32 31 32 33 34 35 35 36 32 26 25 30 35 37 41 45 49 53 55
40 37 28 25 25 22 15 15 19 20 22 24 23 22 21 22 25 34 31 36 29 20 24 28 31 34 34 35 38 42 41 43 42 33 31 30 31 29 28 30 34 39 43
36 37 29 25 25 22 15 15 18 18 21 23 23 24 24 23 23 31 30 36 28 21 18 24 31 33 33 37 43 47 52 46 38 37 37 38 36 33 30 30 28 25 27
35 34 33 30 27 23 16 15 16 17 19 20 22 23 23 22 22 26 34 34 21 12 16 26 30 32 35 40 43 44 45 35 32 32 37 40 41 41 39 35 34 30 26
35 34 34 30 28 23 18 15 14 14 15 18 19 21 21 22 22 21 30 30 19 13 18 25 28 31 33 39 44 50 45 32 30 34 39 45 51 50 43 45 40 36 34
29 30 32 30 29 24 19 16 14 13 13 14 16 18 19 18 19 19 23 25 17 12 21 24 26 29 32 38 43 43 33 26 36 45 55 48 51 49 50 51 50 49 49
33 30 29 31 29 25 21 16 14 13 13 13 14 16 17 17 17 16 17 16 13 18 20 23 24 27 30 34 37 38 29 36 45 49 52 53 49 44 44 41 40 43 44
37 32 32 32 29 25 23 18 14 12 11 11 11 13 14 15 15 16 15 16 17 20 21 23 25 27 30 32 33 33 26 35 40 40 45 44 39 37 32 34 37 36 37
32 33 32 36 33 29 26 23 19 15 12 11 9 11 13 14 15 16 16 16 18 20 21 23 25 27 30 32 32 31 25 26 26 26 25 33 32 32 31 34 33 35 32
30 33 34 38 36 34 31 26 23 20 16 12 10 10 12 15 17 17 17 17 18 19 20 21 23 25 29 32 30 27 22 27 34 39 39 36 35 35 36 38 38 41 33
36 36 34 36 38 36 33 30 27 24 21 17 15 12 11 12 16 18 19 19 18 18 19 21 23 25 28 26 23 21 22 34 39 42 35 37 43 36 32 32 31 43 38
48 41 38 38 34 34 33 34 32 30 27 22 21 17 14 9 10 14 17 17 17 17 17 20 24 26 26 23 18 16 24 32 43 47 43 37 36 27 23 22 41 41 42
46 46 45 43 42 43 39 37 37 34 32 31 28 26 16 7 7 9 8 8 8 12 12 14 15 16 18 17 18 13 22 29 36 41 38 27 24 19 17 34 40 37 38
49 48 49 49 48 46 43 45 42 39 38 37 37 37 27 21 14 14 12 10 6 7 7 3 4 9 12 16 19 15 24 31 38 40 37 26 26 29 34 31 35 35 35
52 56 55 54 50 49 50 49 47 46 44 41 41 43 37 28 22 24 24 16 15 14 12 9 11 10 12 14 17 16 20 32 40 42 43 38 31 33 28 31 32 33 32
55 56 60 62 58 57 60 56 49 51 45 46 47 50 45 39 33 30 27 25 24 20 20 20 20 16 14 16 19 20 23 33 35 35 35 36 36 31 31 29 28 27 29
63 62 66 69 68 71 68 61 54 50 47 48 57 52 50 50 45 38 35 32 33 31 28 27 29 26 20 18 20 23 26 32 36 37 35 28 18 18 26 26 25 24 26
65 70 71 75 73 67 73 71 66 63 58 56 54 55 55 57 54 52 46 41 40 42 41 38 34 31 26 18 22 26 30 32 35 38 37 31 23 20 18 23 23 21 23
66 74 78 76 76 72 71 73 70 66 67 67 65 57 52 59 60 61 53 51 49 50 49 45 40 36 34 26 25 29 33 35 36 34 32 30 27 21 15 11 10 10 18
71 73 77 75 78 74 75 73 73 75 68 71 72 68 65 60 61 59 62 62 61 61 56 51 50 45 41 35 35 35 38 37 35 35 34 32 29 26 21 15 13 11 11
73 71 74 78 81 78 79 82 81 81 78 80 81 77 66 69 65 68 64 66 71 72 63 52 61 57 51 52 45 41 39 39 39 37 38 36 33 28 24 22 19 16 13
66 75 78 82 82 81 80 82 84 81 81 81 81 80 74 79 79 76 75 69 74 79 62 60 66 67 64 62 56 46 34 39 46 43 43 40 35 32 29 25 23 21 19
68 71 80 84 84 84 81 81 82 78 79 85 89 85 81 80 86 89 82 80 72 81 76 80 63 78 70 67 65 47 24 27 49 50 47 44 41 38 35 32 30 27 22
71 63 68 78 84 85 81 83 86 89 91 91 84 75 72 81 89 91 87 85 78 76 81 79 69 89 74 73 79 75 47 35 34 31 53 52 47 46 42 39 34 30 25
52 61 57 63 75 80 81 81 83 86 87 87 80 74 70 71 86 94 93 85 83 82 86 76 85 89 87 87 85 80 71 50 39 35 39 60 59 53 48 43 38 34 29
45 50 56 57 65 73 78 80 82 84 85 82 81 80 74 68 75 90 95 97 89 90 92 90 83 97 84 99 92 91 84 75 71 52 36 38 51 53 54 50 47 39 33
Wind_Direction_850mb
152 157 154 136 138 135 130 107 84 76 82 83 83 89 95 103 107 100 98 90 94 91 83 83 84 89 88 89 89 92 88 81 77 83 90 95 95 90 88 86 83 79 81
152 158 155 144 146 147 141 113 92 82 79 79 87 94 97 98 108 108 100 102 100 96 87 89 89 86 85 89 92 89 85 75 64 74 82 94 95 92 98 96 94 91 87
172 167 164 161 154 150 137 103 89 84 79 78 79 84 95 99 95 105 104 110 100 98 98 89 86 83 85 91 93 91 83 77 74 71 78 81 82 84 83 86 93 90 84
175 169 169 164 161 156 143 122 107 97 90 86 83 83 86 94 99 105 100 106 115 123 107 91 87 85 91 95 97 95 93 97 95 85 77 80 76 76 76 77 76 78 79
180 172 171 169 164 161 155 135 118 103 95 92 86 83 85 90 94 101 111 118 127 125 96 91 85 88 94 97 97 91 81 83 88 77 80 76 78 75 75 73 69 72 73
175 179 170 175 170 169 170 150 136 124 115 102 85 79 78 86 95 111 121 141 141 102 90 89 88 93 99 102 101 96 107 85 81 78 72 72 76 78 80 80 82 77 77
163 192 188 181 175 175 180 168 155 140 128 112 97 85 79 82 94 105 116 123 111 99 96 93 93 98 101 105 109 107 94 94 95 93 90 86 86 81 89 87 87 87 86
175 185 193 186 182 182 187 184 176 157 146 133 111 93 83 87 97 101 107 106 105 101 98 97 101 104 105 108 111 107 105 107 107 106 99 100 97 96 93 91 87 94 91
195 197 197 191 188 189 193 194 191 183 174 162 133 101 92 94 98 102 102 99 100 102 103 105 109 111 113 115 117 117 114 114 123 121 117 111 111 98 98 94 94 91 89
202 203 199 198 195 194 196 197 201 197 195 183 159 129 112 108 104 101 102 102 103 107 110 114 116 118 122 125 126 126 118 106 100 88 78 85 98 98 97 90 85 81 74
202 205 208 209 201 203 204 202 202 204 204 195 184 165 139 127 116 107 100 99 101 107 113 117 120 123 129 129 129 133 126 110 104 99 96 101 107 106 96 88 81 80 78
205 211 205 209 212 208 211 208 203 206 205 208 199 180 161 158 137 124 110 97 97 102 111 121 126 128 132 132 130 128 123 125 118 112 110 114 109 111 100 94 86 79 77
215 202 212 213 210 207 210 211 206 208 209 207 203 201 186 214 198 180 150 109 103 111 113 130 142 148 157 150 146 144 125 135 132 127 132 133 135 132 112 89 82 77 76
207 207 206 213 211 209 212 212 214 210 214 215 208 210 205 200 226 226 226 200 176 169 124 120 176 187 185 173 168 167 143 144 134 132 130 133 120 116 98 88 85 81 77
210 208 213 208 214 212 213 215 217 217 216 222 219 212 213 210 227 231 230 223 226 233 239 242 240 220 210 199 189 187 164 155 144 141 140 138 130 108 98 95 89 83 78
221 218 216 217 208 212 217 220 220 221 222 223 227 220 220 218 235 234 234 228 233 237 248 243 216 217 231 217 205 195 177 169 168 164 163 154 143 117 111 99 95 87 82
217 225 215 225 222 217 215 220 221 224 228 228 230 232 228 227 225 235 235 234 233 224 247 248 226 220 210 224 213 200 187 177 175 174 179 186 187 183 129 114 106 97 88
221 220 224 224 232 223 219 222 221 224 232 237 235 236 232 230 233 233 230 232 229 228 227 230 228 215 210 237 245 211 197 188 185 186 188 196 204 201 191 148 126 107 94
229 225 229 230 230 227 225 223 226 226 225 230 239 237 233 231 230 235 234 234 229 230 231 233 225 222 227 224 239 224 205 197 196 198 200 205 207 208 202 184 172 155 113
235 230 232 231 233 230 225 226 226 228 229 230 233 236 236 236 231 232 233 230 235 232 229 239 227 219 227 226 212 223 209 206 204 205 210 215 213 210 209 203 201 202 181
235 233 229 228 232 231 226 226 227 230 229 230 238 238 232 238 239 244 239 236 232 234 244 240 228 216 212 220 213 200 205 208 212 211 216 217 217 213 214 216 219 221 217
243 233 228 231 233 235 232 233 232 235 236 242 242 246 242 233 238 242 240 238 237 237 246 237 243 208 212 217 212 205 198 211 214 216 220 220 219 218 219 222 226 227 220
245 239 232 233 236 238 236 233 233 233 237 240 243 244 242 237 237 236 241 243 241 238 241 246 249 220 231 221 218 215 188 212 212 216 222 225 224 224 224 227 228 230 227
249 252 246 238 234 237 236 235 234 235 235 243 250 251 248 239 234 237 238 243 242 243 237 240 251 230 229 231 220 220 221 220 189 200 219 226 227 228 226 227 227 228 223
251 251 248 243 237 235 237 237 237 238 240 245 248 249 249 244 233 235 236 238 243 236 248 239 250 232 243 239 239 221 216 217 222 209 208 218 223 227 226 228 229 231 229
243 240 247 244 240 237 238 239 239 241 244 244 247 248 250 247 237 232 235 238 238 243 236 247 244 237 239 237 234 227 227 223 219 216 213 216 224 228 231 230 231 232 233